Wind_Speed
22 22 22 21 21 21 22 22 21 21 21 21 21 21 21 21 21 21 22 22 23 23 22 21 21 21 20 20 21 21 22 22 22 22 22 23 24 23 23 24 24 24 24
21 21 22 22 22 22 21 21 21 22 23 23 23 23 23 23 23 22 23 23 24 23 22 22 22 22 22 22 22 22 23 24 23 23 23 24 25 26 25 26 25 25 25
21 21 21 21 22 22 22 22 23 23 24 24 24 24 24 24 24 23 23 23 23 23 23 23 23 23 23 23 23 23 24 24 25 25 25 25 26 26 27 27 27 27 27
21 21 22 22 22 22 22 23 23 23 24 24 24 25 25 25 24 23 24 24 24 24 24 24 25 24 25 24 24 24 24 25 25 26 27 27 27 28 28 29 29 28 29
22 22 22 22 23 23 23 24 23 23 24 25 25 26 25 25 25 25 25 25 24 25 25 26 26 25 26 25 25 25 25 26 26 27 27 27 27 28 29 29 29 30 30
23 23 23 23 24 24 24 24 24 24 24 24 25 25 25 26 26 25 26 26 26 26 26 26 26 26 26 26 26 26 26 26 26 27 27 27 27 28 29 29 30 30 30
24 24 24 25 25 26 26 25 25 25 24 24 24 24 25 25 26 26 26 27 27 27 27 26 26 26 25 26 26 26 26 26 27 26 27 26 26 26 27 28 29 29 30
24 25 25 26 27 27 27 26 26 25 25 25 25 25 25 26 26 27 27 27 27 27 27 26 26 26 26 26 26 26 26 26 26 26 26 26 26 26 26 27 28 29 29
24 24 25 26 27 28 27 27 26 26 26 27 27 27 27 26 27 27 27 27 27 27 27 27 27 27 27 27 26 26 27 27 27 27 27 27 27 27 26 27 27 28 30
25 25 26 26 27 27 27 27 27 26 26 27 27 28 28 28 28 27 28 28 28 28 28 28 28 28 28 28 27 27 28 29 29 29 29 29 29 28 27 28 28 29 30
26 26 26 26 27 26 27 27 26 26 26 26 27 27 27 28 28 27 27 28 29 28 28 28 29 29 29 29 29 29 29 29 29 29 30 30 30 29 29 29 29 29 30
26 26 27 27 27 27 27 27 26 26 26 26 26 27 27 28 27 27 27 27 28 28 28 29 29 29 29 30 31 30 30 30 30 30 30 30 30 30 31 30 29 30 29
26 26 26 26 27 27 26 26 25 25 26 27 27 27 27 27 28 28 28 28 28 28 29 29 29 30 29 30 30 30 30 31 31 31 30 30 29 29 30 30 29 30 29
26 26 25 25 26 25 26 25 25 26 27 28 28 28 29 29 28 28 28 28 28 28 29 29 29 29 29 30 30 30 30 30 29 30 29 29 28 28 28 28 29 30 29
24 24 24 24 24 24 24 25 26 27 27 28 28 28 29 29 28 28 27 27 27 28 28 28 28 29 29 29 29 29 29 28 29 29 29 28 28 28 28 28 29 29 30
23 23 23 23 23 24 24 24 25 25 26 26 27 27 27 27 27 27 27 26 27 26 25 26 26 27 28 27 28 28 28 28 27 28 27 27 27 27 27 27 28 29 29
22 22 22 21 22 22 23 23 23 24 24 25 25 25 25 25 25 25 26 26 26 25 25 24 25 25 25 25 26 26 26 26 26 26 26 26 26 26 26 26 26 27 28
21 20 20 21 21 21 22 22 22 23 23 23 23 23 22 23 23 23 23 23 24 24 23 22 23 23 23 23 24 24 24 25 25 25 25 25 24 25 24 24 24 25 26
19 19 20 20 20 20 20 20 21 20 20 21 21 20 20 20 20 20 20 20 21 21 21 21 22 22 22 21 21 22 22 22 22 23 23 23 23 23 23 22 23 23 23
17 17 18 18 18 18 18 18 18 17 18 17 17 17 17 17 17 17 18 18 18 19 20 20 20 20 20 19 19 19 19 19 20 21 21 21 21 21 21 21 21 21 22
16 16 16 16 16 15 15 15 15 15 15 14 14 15 15 15 15 15 16 17 17 17 17 17 17 17 17 17 16 16 17 17 17 17 18 18 19 19 19 19 19 19 19
14 14 13 13 13 13 13 13 14 13 13 13 14 13 13 12 12 12 13 13 13 13 13 13 13 12 12 13 13 14 14 14 14 14 15 15 15 16 16 16 17 17 17
12 12 12 11 11 11 12 12 12 12 11 11 11 11 10 10 10 10 9 9 8 8 8 9 8 8 9 10 10 11 11 12 12 12 12 12 13 13 14 14 14 15 15
10 10 10 11 11 11 11 12 11 11 10 10 9 8 8 7 7 7 6 6 5 5 4 4 5 5 6 6 7 7 7 8 8 9 10 10 11 12 11 12 12 13 13
8 8 9 10 10 11 10 10 10 10 9 9 8 7 7 7 7 6 4 3 3 2 2 2 3 4 4 4 3 4 5 5 5 6 7 7 8 9 10 11 12 12 12
8 8 8 8 9 9 10 10 9 9 9 9 8 8 7 6 6 5 4 4 3 2 1 0 1 2 3 2 1 2 3 4 4 5 5 6 7 9 9 10 11 11 11
Wind_Direction
274 272 273 273 273 273 270 269 269 269 270 272 270 270 269 269 268 266 265 265 264 264 264 265 263 263 263 263 263 261 261 261 261 262 262 259 255 256 256 255 254 255 255
274 273 274 273 273 271 270 270 270 270 269 270 270 269 268 268 268 267 268 267 266 265 264 264 262 262 263 263 263 263 261 258 258 260 261 260 257 257 257 256 254 255 255
277 275 275 276 274 272 271 273 274 271 270 271 270 269 268 268 268 267 267 267 265 264 263 263 264 263 263 264 264 264 262 259 258 258 258 259 259 259 257 257 256 255 255
279 279 277 277 275 273 273 274 274 272 272 272 270 269 268 268 266 266 265 264 264 264 265 264 263 262 263 263 263 264 262 259 259 258 258 258 259 259 258 257 257 257 256
279 279 279 277 276 275 275 275 275 273 273 272 269 268 267 266 265 265 264 264 263 263 264 265 263 263 262 261 261 261 262 260 259 259 260 259 257 258 258 258 257 256 256
280 279 277 275 276 277 276 275 275 273 272 271 269 268 268 267 267 265 265 264 264 264 264 265 266 265 263 261 259 259 260 260 261 261 260 259 259 258 259 258 258 258 257
280 280 279 278 277 278 278 277 276 275 272 270 270 270 270 270 269 268 267 266 265 265 264 264 264 263 263 261 260 259 260 260 259 259 260 259 260 259 259 259 258 259 258
282 282 281 281 280 280 278 277 276 276 274 272 272 272 271 270 270 269 268 267 265 265 264 262 262 262 261 262 261 260 260 261 259 260 261 261 261 261 260 261 260 259 258
283 283 282 280 280 281 280 279 279 278 277 275 275 274 273 271 270 269 267 267 266 266 265 264 262 262 261 262 263 261 259 260 260 260 260 261 261 262 260 261 262 261 259
284 284 283 282 281 281 280 279 280 280 279 278 278 277 276 274 272 270 268 267 266 264 263 264 262 262 261 262 262 261 260 260 261 261 261 261 260 261 261 261 261 261 261
285 284 284 283 283 284 281 279 279 279 279 278 279 279 279 277 275 271 268 266 265 263 261 262 262 262 262 262 262 262 261 261 260 261 261 261 261 260 260 261 261 262 263
285 285 286 285 286 285 282 279 278 279 278 278 280 281 280 278 276 274 271 268 266 264 262 261 262 262 263 264 264 262 262 262 261 261 261 260 261 260 259 261 261 263 262
288 287 287 285 285 284 283 280 279 279 279 280 280 280 279 278 276 274 273 270 268 266 265 263 262 262 262 263 263 262 262 261 261 261 262 261 261 260 259 261 260 261 262
289 289 286 284 283 282 283 281 280 279 279 280 280 280 280 278 276 274 272 271 269 267 266 266 265 264 263 262 262 263 262 261 261 261 260 261 260 260 259 260 260 263 264
290 290 290 287 283 283 282 282 281 282 281 281 281 280 278 277 276 274 272 271 270 269 268 268 267 265 264 263 262 261 261 260 260 260 261 260 260 260 260 261 261 263 264
291 291 291 291 289 287 286 287 286 285 283 283 282 282 280 277 275 272 270 269 268 268 268 267 267 265 264 264 263 261 261 259 259 258 260 261 260 259 259 260 261 261 262
292 291 292 292 292 290 289 289 289 289 288 286 285 284 282 279 277 273 271 269 268 267 267 266 265 265 264 263 261 261 260 259 260 259 259 259 259 259 258 260 261 261 262
294 293 294 294 295 296 294 293 293 293 291 287 286 285 283 281 280 277 274 271 270 269 268 266 265 265 263 262 260 260 259 260 259 259 259 259 259 259 259 261 260 262 264
299 298 298 297 299 301 299 298 297 295 293 290 288 287 286 284 282 279 276 272 271 270 268 267 265 266 263 262 260 260 259 260 259 259 257 256 258 258 260 261 261 263 264
302 301 301 301 302 302 302 303 301 298 296 294 292 289 288 286 285 281 276 273 272 270 269 268 268 265 261 260 260 261 261 260 259 258 257 257 257 258 258 260 260 261 261
308 308 308 307 307 306 306 307 306 304 302 301 300 298 296 293 288 285 279 275 273 271 269 268 267 262 260 259 260 260 259 258 258 257 256 255 256 256 256 258 259 260 260
317 318 320 320 318 318 319 316 312 310 307 306 306 304 303 298 298 294 285 280 276 272 268 264 264 259 257 257 257 256 257 257 255 256 255 254 254 255 255 257 257 257 260
323 324 324 323 326 328 328 326 323 322 320 318 318 317 314 309 306 306 297 288 280 273 268 263 261 258 257 254 255 256 256 257 256 252 252 253 254 254 255 258 260 261 262
332 333 332 331 333 332 328 329 331 333 331 329 330 331 331 330 326 321 309 296 286 281 274 263 257 253 253 251 252 251 254 255 255 252 249 250 254 257 259 262 264 264 265
340 340 339 339 342 343 340 341 344 345 342 340 341 341 341 344 348 349 345 340 333 315 282 256 248 242 247 251 251 250 249 246 251 254 253 253 258 261 266 268 269 271 272
339 338 341 347 348 354 358 1 4 6 5 5 4 1 358 358 359 6 16 23 24 22 16 7 221 218 224 254 277 253 245 251 255 257 258 259 265 266 268 271 275 274 275
Height
5867 5866 5866 5865 5864 5863 5862 5861 5861 5860 5860 5859 5858 5858 5857 5856 5856 5855 5855 5855 5855 5855 5854 5854 5855 5854 5854 5854 5855 5855 5856 5856 5856 5857 5857 5858 5858 5859 5860 5860 5861 5862 5863
5862 5861 5860 5859 5858 5858 5857 5856 5856 5855 5854 5854 5853 5852 5851 5851 5850 5850 5849 5849 5849 5848 5849 5849 5849 5849 5849 5849 5849 5850 5850 5851 5851 5852 5852 5852 5853 5854 5854 5855 5856 5857 5857
5857 5856 5855 5854 5853 5852 5851 5851 5850 5849 5849 5848 5847 5847 5846 5845 5845 5844 5844 5843 5843 5843 5843 5843 5843 5843 5843 5843 5843 5844 5844 5845 5845 5846 5846 5846 5847 5848 5848 5849 5850 5851 5852
5852 5851 5850 5849 5848 5847 5846 5845 5844 5843 5842 5842 5841 5841 5840 5839 5838 5838 5838 5837 5837 5837 5837 5837 5836 5836 5836 5837 5837 5837 5838 5838 5839 5839 5840 5840 5841 5841 5842 5843 5844 5844 5845
5847 5846 5845 5843 5842 5841 5840 5839 5838 5837 5836 5835 5835 5834 5833 5832 5832 5831 5831 5830 5830 5830 5830 5830 5830 5829 5830 5830 5831 5831 5831 5832 5832 5833 5833 5833 5834 5834 5835 5836 5837 5837 5838
5841 5840 5839 5838 5837 5835 5834 5833 5831 5830 5830 5829 5828 5827 5826 5826 5825 5824 5824 5823 5823 5823 5823 5823 5823 5823 5823 5823 5824 5824 5825 5825 5825 5826 5826 5827 5827 5828 5828 5829 5830 5830 5831
5835 5834 5833 5831 5830 5829 5827 5826 5825 5823 5823 5822 5821 5820 5819 5818 5817 5817 5816 5816 5816 5816 5816 5816 5816 5817 5816 5817 5817 5818 5818 5818 5819 5819 5819 5820 5820 5821 5821 5822 5823 5824 5824
5829 5827 5826 5824 5823 5821 5820 5819 5817 5816 5815 5814 5814 5813 5812 5812 5810 5810 5809 5809 5808 5808 5809 5809 5809 5809 5810 5810 5810 5811 5811 5811 5812 5812 5812 5813 5813 5814 5814 5815 5815 5816 5817
5822 5821 5819 5817 5816 5814 5812 5811 5810 5809 5808 5806 5806 5805 5804 5804 5803 5802 5801 5801 5801 5801 5801 5801 5802 5802 5802 5803 5803 5803 5804 5804 5805 5805 5806 5806 5807 5807 5807 5808 5809 5809 5810
5815 5814 5812 5810 5808 5807 5805 5804 5802 5801 5800 5799 5798 5797 5796 5795 5795 5795 5794 5793 5793 5794 5794 5794 5794 5794 5795 5795 5796 5796 5796 5797 5797 5798 5798 5799 5799 5800 5800 5801 5802 5802 5802
5808 5806 5804 5803 5801 5799 5797 5796 5794 5793 5792 5792 5791 5789 5788 5787 5786 5786 5786 5785 5785 5785 5786 5786 5786 5787 5787 5787 5788 5788 5788 5789 5789 5790 5790 5791 5792 5792 5793 5794 5794 5794 5795
5801 5799 5797 5795 5793 5791 5790 5788 5787 5786 5785 5784 5783 5782 5780 5779 5778 5778 5777 5777 5777 5777 5778 5778 5778 5779 5779 5779 5779 5779 5780 5780 5781 5782 5783 5783 5784 5785 5785 5786 5786 5787 5787
5793 5791 5789 5787 5785 5784 5782 5781 5779 5778 5777 5776 5775 5774 5772 5771 5770 5769 5769 5769 5769 5769 5769 5770 5770 5770 5771 5771 5770 5771 5771 5772 5772 5774 5774 5775 5776 5776 5777 5778 5778 5779 5780
5786 5783 5781 5780 5778 5776 5775 5773 5772 5771 5770 5768 5767 5765 5764 5762 5761 5760 5760 5760 5760 5760 5760 5761 5761 5761 5762 5762 5762 5762 5763 5763 5764 5765 5766 5767 5768 5768 5769 5770 5771 5771 5772
5779 5776 5774 5772 5770 5769 5767 5766 5765 5763 5762 5760 5758 5757 5755 5754 5753 5752 5751 5751 5752 5752 5752 5752 5752 5752 5753 5753 5754 5754 5755 5755 5756 5757 5758 5759 5760 5761 5761 5762 5763 5764 5764
5773 5770 5768 5766 5763 5762 5760 5759 5757 5755 5754 5752 5750 5749 5747 5745 5744 5743 5742 5742 5743 5743 5744 5743 5743 5744 5744 5745 5745 5746 5746 5747 5748 5749 5750 5751 5752 5753 5754 5755 5755 5756 5756
5767 5765 5762 5760 5757 5755 5753 5752 5750 5748 5746 5744 5743 5741 5739 5737 5736 5735 5735 5735 5735 5735 5735 5735 5736 5736 5737 5737 5737 5738 5739 5740 5741 5742 5742 5743 5744 5745 5746 5747 5748 5748 5749
5761 5759 5757 5754 5752 5750 5747 5745 5743 5741 5739 5737 5735 5734 5732 5730 5729 5728 5727 5727 5727 5727 5728 5728 5728 5729 5729 5730 5730 5731 5732 5733 5734 5734 5735 5736 5737 5738 5739 5740 5740 5741 5741
5756 5754 5751 5749 5747 5744 5742 5740 5737 5735 5733 5731 5729 5728 5726 5724 5723 5721 5721 5721 5721 5721 5721 5721 5722 5722 5723 5724 5724 5725 5725 5726 5727 5728 5729 5730 5731 5731 5732 5733 5734 5734 5734
5752 5749 5747 5744 5742 5739 5737 5735 5732 5730 5728 5726 5724 5722 5720 5718 5717 5716 5715 5715 5715 5715 5715 5715 5715 5716 5717 5717 5718 5719 5719 5720 5721 5721 5722 5723 5724 5725 5726 5727 5727 5727 5727
5748 5745 5743 5740 5737 5735 5733 5731 5729 5726 5724 5722 5720 5718 5715 5714 5712 5711 5710 5709 5709 5709 5709 5709 5709 5710 5711 5711 5712 5713 5714 5714 5715 5716 5716 5718 5719 5719 5720 5720 5721 5721 5721
5745 5742 5740 5737 5735 5733 5730 5728 5726 5723 5721 5719 5716 5714 5712 5710 5708 5706 5705 5705 5704 5704 5704 5705 5705 5706 5706 5707 5708 5708 5709 5709 5710 5711 5712 5712 5713 5714 5715 5715 5716 5716 5715
5742 5740 5738 5736 5733 5731 5728 5726 5723 5721 5718 5716 5713 5711 5709 5707 5705 5704 5702 5702 5701 5701 5701 5702 5702 5703 5703 5704 5704 5705 5705 5705 5706 5707 5708 5708 5709 5710 5710 5710 5711 5711 5710
5741 5739 5737 5734 5732 5729 5726 5724 5721 5719 5717 5714 5712 5709 5707 5705 5703 5702 5700 5700 5699 5699 5699 5699 5700 5701 5701 5701 5702 5702 5702 5703 5703 5704 5705 5705 5705 5706 5706 5706 5706 5706 5706
5739 5738 5736 5733 5731 5728 5725 5723 5721 5718 5716 5713 5711 5709 5706 5704 5703 5701 5700 5699 5698 5698 5698 5698 5698 5699 5699 5700 5700 5700 5701 5701 5701 5702 5702 5702 5703 5703 5703 5703 5703 5702 5702
5739 5737 5735 5732 5730 5728 5725 5723 5721 5718 5716 5713 5711 5708 5706 5704 5703 5701 5700 5699 5698 5698 5698 5698 5698 5698 5699 5699 5699 5699 5699 5700 5700 5700 5700 5700 5700 5700 5700 5700 5699 5699 5698